sat.trackr.live / text

‹ back to catalog

STARLINK-30876

NORAD 58404 · 2023-180C

PAYLOAD ACTIVE UNKNOWN

§ Identity

Operator
Country
US
Launch date
2023-11-22
Launch site
AFETR
Launch vehicle
Mass (kg)
RCS (m²)

Purposes: comms

External: N2YO · Heavens-Above · Gunter

§ Orbital elements

Epoch: 2026-09-20T08:21:30.223872Z

Period
94.27 min
Inclination
43.0069°
Eccentricity
0.0001437
Mean motion
15.27579609 rev/d
Perigee alt
482.1 km
Apogee alt
484.0 km
Semi-major
6,861.2 km
B*
2.1864e-5
RAAN
33.4696°
Arg perigee
259.5547°
Mean anomaly
100.5143°
Rev number
15,739

§ Raw data

STARLINK-308761 58404U 23180C   26263.34826648  .00000339  00000+0  21864-4 0  99942 58404  43.0069  33.4696 0001437 259.5547 100.5143 15.27579609157398

JSON: /api/v1/satellites/58404 · /tle

For live sub-satellite position, see the globe view (requires WebGL).

§ Visibility from observer

Set your observer location to see the next 7 days of passes ≥ 10°. The values pass through the URL so the page stays shareable.

No JS? Fill the form by hand. The geolocation button needs JavaScript.